Location: Antioch Baptist Church
(32.6696°N, 85.7327°W)
Time: 20:34:51
(UTC+00:00)

H-2A R/B - Pass Details

Date: 14 July 2020
Orbit: 577 x 656 km, 98.5° (Epoch: 13 August)

Event Time Altitude Azimuth Distance (km) Brightness Sun altitude
Exits shadow 10:05:21 - 199° (SSW) 2,599 4.8 -8.2°
Reaches altitude 10° 10:07:01 10° 209° (SSW) 2,024 4.2 -7.9°
Maximum altitude 10:10:33 24° 263° (W) 1,329 3.2 -7.3°
Drops below altitude 10° 10:14:03 10° 316° (NW) 1,999 4.6 -6.7°
Sets 10:16:36 0° 331° (NNW) 2,894 5.5 -6.2°
